Seminole, TX

3:34 PM CST on December 10, 2019 (GMT -0600)
Seminole

Weather History for KGNC - October, 2019

Change the Weather History Date:

Thursday, October 24, 2019

  Actual Average (KHOB) Record (KHOB)
Temperature  
Mean Temperature 44 °F -  
Max Temperature 56 °F 71 °F 87 °F (2003)
Min Temperature 33 °F 46 °F 33 °F (2019)
Degree Days  
Heating Degree Days 20    
Moisture  
Dew Point 30 °F    
Average Humidity 60    
Maximum Humidity 80    
Minimum Humidity 37    
Precipitation  
Precipitation 0.00 in - - ()
Sea Level Pressure  
Sea Level Pressure 30.22 in    
Wind  
Wind Speed 15 mph (NNE)    
Max Wind Speed 26 mph    
Max Gust Speed 38 mph    
Visibility 10 miles    
Events      
Averages and records for this station are not official NWS values.
T = Trace of Precipitation, MM = Missing Value Source: NWS Daily Summary

Daily Weather History Graph

Daily Weather History Graph

Search for Another Location

Airport or City:

Astronomy

Oct. 24, 2019 Rise Set
Actual Time 8:01 AM CDT 7:07 PM CDT
Civil Twilight 7:36 AM CDT 7:32 PM CDT
Nautical Twilight 7:07 AM CDT 8:01 PM CDT
Astronomical Twilight 6:38 AM CDT 8:30 PM CDT
Moon 3:53 AM CDT (10/24) 5:19 PM CDT (10/24)
Length of Visible Light 11h 56m
Length of Day
11h 06m
Waning Crescent, 16% of the Moon is Illuminated
Oct 24
Waning Crescent
Oct 27
New
Nov 4
First Quarter
Nov 12
Full
Nov 19
Last Quarter

Hourly Weather History & Observations

Time (CDT) Temp. Windchill Dew Point Humidity Pressure Visibility Wind Dir Wind Speed Gust Speed Precip Events Conditions
12:15 AM 55.4 °F - 30.7 °F 39% 30.02 in 10.0 mi ENE 8.1 mph - N/A   Clear
12:35 AM 55.9 °F - 30.7 °F 38% 30.02 in 10.0 mi NE 8.1 mph - N/A   Clear
12:55 AM 55.8 °F - 30.7 °F 39% 30.02 in 10.0 mi NE 6.9 mph - N/A   Clear
1:15 AM 56.3 °F - 30.4 °F 37% 30.02 in 10.0 mi NE 9.2 mph - N/A   Clear
1:35 AM 55.4 °F - 30.7 °F 39% 30.01 in 10.0 mi NE 8.1 mph - N/A   Clear
1:55 AM 54.5 °F - 30.7 °F 40% 30.01 in 10.0 mi NE 6.9 mph - N/A   Clear
2:15 AM 54.5 °F - 30.7 °F 40% 30.01 in 10.0 mi NE 8.1 mph - N/A   Clear
2:35 AM 53.6 °F - 30.9 °F 42% 30.01 in 10.0 mi NE 8.1 mph - N/A   Clear
2:55 AM 53.2 °F - 31.1 °F 43% 30.01 in 10.0 mi NE 8.1 mph - N/A   Clear
3:15 AM 52.9 °F - 31.1 °F 43% 30.01 in 10.0 mi ENE 8.1 mph - N/A   Clear
3:35 AM 52.7 °F - 31.6 °F 45% 30.01 in 10.0 mi NE 8.1 mph - N/A   Clear
3:55 AM 52.2 °F - 31.6 °F 46% 30.02 in 10.0 mi NE 9.2 mph - N/A   Clear
4:15 AM 51.8 °F - 31.6 °F 46% 30.03 in 10.0 mi North 11.5 mph - N/A   Scattered Clouds
4:35 AM 53.2 °F - 31.6 °F 44% 30.03 in 10.0 mi NNE 13.8 mph 19.6 mph N/A   Mostly Cloudy
4:55 AM 54.1 °F - 31.8 °F 43% 30.04 in 10.0 mi NNE 12.7 mph 20.7 mph N/A   Overcast
5:15 AM 55.4 °F - 32.0 °F 41% 30.05 in 10.0 mi NE 17.3 mph 24.2 mph N/A   Overcast
5:35 AM 55.4 °F - 33.1 °F 43% 30.05 in 10.0 mi NE 16.1 mph 27.6 mph N/A   Overcast
5:55 AM 54.9 °F - 34.2 °F 46% 30.07 in 10.0 mi NNE 19.6 mph 25.3 mph N/A   Overcast
6:15 AM 54.5 °F - 34.7 °F 47% 30.08 in 10.0 mi NE 18.4 mph 26.5 mph N/A   Overcast
6:35 AM 54.5 °F - 34.9 °F 48% 30.08 in 10.0 mi NNE 18.4 mph 24.2 mph N/A   Overcast
6:55 AM 54.3 °F - 34.0 °F 46% 30.09 in 10.0 mi NNE 25.3 mph 34.5 mph N/A   Overcast
7:15 AM 53.8 °F - 32.9 °F 45% 30.10 in 10.0 mi NE 26.5 mph 32.2 mph N/A   Overcast
7:35 AM 53.6 °F - 31.5 °F 43% 30.10 in 10.0 mi NE 24.2 mph 31.1 mph N/A   Overcast
7:55 AM 52.9 °F - 29.7 °F 41% 30.09 in 10.0 mi NE 23.0 mph 29.9 mph N/A   Overcast
8:15 AM 51.3 °F - 30.6 °F 45% 30.10 in 10.0 mi NE 21.9 mph 27.6 mph N/A   Overcast
8:55 AM 50.0 °F - 31.1 °F 48% 30.14 in 10.0 mi NE 21.9 mph 28.8 mph N/A   Overcast
9:15 AM 48.4 °F - 31.5 °F 52% 30.17 in 10.0 mi North 17.3 mph 25.3 mph N/A   Overcast
9:55 AM 47.7 °F - 32.0 °F 55% 30.20 in 10.0 mi NNE 19.6 mph 27.6 mph N/A   Overcast
10:15 AM 47.3 °F - 32.0 °F 55% 30.21 in 10.0 mi NNE 19.6 mph 27.6 mph N/A   Overcast
10:35 AM 46.6 °F - 32.0 °F 57% 30.22 in 10.0 mi North 19.6 mph 26.5 mph N/A   Overcast
10:55 AM 46.2 °F 38.5 °F 32.0 °F 58% 30.22 in 10.0 mi NNE 20.7 mph 27.6 mph N/A   Overcast
11:15 AM 45.9 °F 37.8 °F 32.0 °F 58% 30.22 in 10.0 mi NNE 21.9 mph 26.5 mph N/A   Overcast
11:35 AM 45.7 °F 37.8 °F 32.0 °F 59% 30.23 in 10.0 mi North 20.7 mph 29.9 mph N/A   Overcast
11:55 AM 45.7 °F 38.6 °F 32.0 °F 59% 30.23 in 10.0 mi NNE 17.3 mph 23.0 mph N/A   Overcast
12:15 PM 45.3 °F 38.1 °F 32.0 °F 60% 30.25 in 10.0 mi NNE 17.3 mph 24.2 mph N/A   Overcast
12:35 PM 45.0 °F 37.4 °F 31.6 °F 60% 30.26 in 10.0 mi NNE 18.4 mph 25.3 mph N/A   Overcast
12:55 PM 44.2 °F 36.4 °F 31.5 °F 61% 30.25 in 10.0 mi North 18.4 mph 32.2 mph N/A   Overcast
1:15 PM 43.2 °F 34.0 °F 31.8 °F 64% 30.26 in 10.0 mi North 23.0 mph 27.6 mph N/A   Overcast
1:35 PM 41.9 °F 33.4 °F 31.8 °F 67% 30.26 in 10.0 mi North 18.4 mph 31.1 mph N/A   Overcast
1:55 PM 41.0 °F 32.2 °F 31.6 °F 69% 30.26 in 10.0 mi NNE 18.4 mph 26.5 mph N/A   Overcast
2:15 PM 40.5 °F 30.7 °F 31.6 °F 71% 30.27 in 10.0 mi NNE 21.9 mph 28.8 mph N/A   Overcast
2:35 PM 39.6 °F 29.5 °F 31.1 °F 72% 30.27 in 10.0 mi North 21.9 mph 31.1 mph N/A   Overcast
2:55 PM 39.7 °F 30.0 °F 30.4 °F 69% 30.27 in 10.0 mi North 20.7 mph 28.8 mph N/A   Overcast
3:15 PM 39.2 °F 29.6 °F 30.2 °F 70% 30.28 in 10.0 mi North 19.6 mph 29.9 mph N/A   Overcast
3:35 PM 39.0 °F 29.3 °F 30.2 °F 71% 30.28 in 10.0 mi North 19.6 mph 26.5 mph N/A   Overcast
3:55 PM 38.3 °F 29.7 °F 30.4 °F 73% 30.28 in 10.0 mi North 15.0 mph 24.2 mph N/A   Overcast
4:15 PM 37.9 °F 27.1 °F 29.3 °F 71% 30.30 in 10.0 mi North 23.0 mph 27.6 mph N/A   Overcast
4:35 PM 37.6 °F 26.6 °F 29.7 °F 73% 30.31 in 10.0 mi North 23.0 mph 28.8 mph N/A   Overcast
4:55 PM 36.9 °F 25.9 °F 29.7 °F 75% 30.32 in 10.0 mi North 21.9 mph 27.6 mph N/A   Overcast
5:15 PM 36.5 °F 26.0 °F 29.3 °F 75% 30.33 in 10.0 mi North 19.6 mph 26.5 mph N/A   Overcast
5:35 PM 35.8 °F 24.8 °F 29.7 °F 78% 30.34 in 10.0 mi North 20.7 mph 29.9 mph N/A   Overcast
5:55 PM 36.1 °F 25.9 °F 29.3 °F 76% 30.35 in 10.0 mi North 18.4 mph 26.5 mph N/A   Overcast
6:15 PM 35.8 °F 25.7 °F 30.0 °F 80% 30.35 in 10.0 mi North 17.3 mph 25.3 mph N/A   Overcast
6:35 PM 36.1 °F 25.2 °F 29.1 °F 76% 30.36 in 10.0 mi North 20.7 mph 31.1 mph N/A   Overcast
6:55 PM 36.0 °F 25.3 °F 29.3 °F 77% 30.36 in 10.0 mi North 19.6 mph 26.5 mph N/A   Overcast
7:15 PM 36.0 °F 24.7 °F 27.9 °F 72% 30.36 in 10.0 mi North 21.9 mph 38.0 mph N/A   Overcast
7:35 PM 36.0 °F 26.0 °F 28.2 °F 73% 30.37 in 10.0 mi North 17.3 mph 29.9 mph N/A   Overcast
7:55 PM 36.0 °F 25.3 °F 28.2 °F 73% 30.38 in 10.0 mi North 19.6 mph 25.3 mph N/A   Overcast
8:15 PM 35.6 °F 24.2 °F 27.9 °F 73% 30.39 in 10.0 mi North 21.9 mph 29.9 mph N/A   Mostly Cloudy
8:35 PM 35.1 °F 24.1 °F 27.3 °F 73% 30.39 in 10.0 mi North 19.6 mph 26.5 mph N/A   Scattered Clouds
8:55 PM 34.9 °F 22.7 °F 27.5 °F 74% 30.39 in 10.0 mi North 24.2 mph 29.9 mph N/A   Clear
9:15 PM 34.7 °F 23.4 °F 27.5 °F 75% 30.40 in 10.0 mi North 20.7 mph 29.9 mph N/A   Clear
9:35 PM 34.3 °F 22.0 °F 27.3 °F 76% 30.40 in 10.0 mi North 24.2 mph - N/A   Clear
9:55 PM 34.2 °F 23.0 °F 27.5 °F 77% 30.40 in 10.0 mi North 19.6 mph 26.5 mph N/A   Clear
10:15 PM 34.2 °F 23.0 °F 27.5 °F 77% 30.41 in 10.0 mi North 19.6 mph 25.3 mph N/A   Clear
10:35 PM 34.3 °F 23.9 °F 26.6 °F 73% 30.42 in 10.0 mi North 17.3 mph 25.3 mph N/A   Clear
10:55 PM 34.0 °F 22.4 °F 26.6 °F 74% 30.43 in 10.0 mi North 20.7 mph 24.2 mph N/A   Clear
11:15 PM 33.8 °F 22.2 °F 27.1 °F 77% 30.43 in 10.0 mi North 20.7 mph 25.3 mph N/A   Clear
11:35 PM 33.3 °F 22.8 °F 27.5 °F 79% 30.42 in 10.0 mi North 16.1 mph - N/A   Clear
11:55 PM 33.4 °F 24.8 °F 27.9 °F 80% 30.42 in 10.0 mi North 11.5 mph 21.9 mph N/A   Clear